TimeEST,TemperatureF,Dew PointF,Humidity,Sea Level PressureIn,VisibilityMPH,Wind Direction,Wind SpeedMPH,Gust SpeedMPH,PrecipitationIn,Events,Conditions,WindDirDegrees,DateUTC
12:53 AM,70.0,66.9,90,30.11,10.0,NE,5.8,-,N/A,,Overcast,40,2013-01-07 05:53:00
1:02 AM,69.8,66.2,88,30.11,10.0,NE,4.6,-,N/A,,Overcast,50,2013-01-07 06:02:00
1:11 AM,69.8,66.2,88,30.11,10.0,ENE,5.8,-,N/A,,Mostly Cloudy,60,2013-01-07 06:11:00
1:53 AM,69.1,66.0,90,30.09,10.0,ENE,5.8,-,N/A,,Clear,60,2013-01-07 06:53:00
2:53 AM,68.0,66.9,96,30.09,10.0,ENE,3.5,-,N/A,,Mostly Cloudy,60,2013-01-07 07:53:00
3:43 AM,68.0,66.2,94,30.09,10.0,NE,5.8,-,N/A,,Overcast,40,2013-01-07 08:43:00
3:53 AM,68.0,66.9,96,30.08,10.0,ENE,5.8,-,N/A,,Overcast,60,2013-01-07 08:53:00
4:53 AM,68.0,66.9,96,30.09,10.0,NE,5.8,-,N/A,,Overcast,50,2013-01-07 09:53:00
5:16 AM,68.0,66.2,94,30.10,10.0,East,3.5,-,N/A,,Overcast,90,2013-01-07 10:16:00
5:34 AM,68.0,66.2,94,30.10,10.0,ENE,4.6,-,N/A,,Overcast,70,2013-01-07 10:34:00
5:53 AM,68.0,66.0,93,30.09,10.0,ENE,4.6,-,N/A,,Overcast,60,2013-01-07 10:53:00
6:26 AM,68.0,66.2,94,30.11,10.0,NE,5.8,-,N/A,,Overcast,50,2013-01-07 11:26:00
6:53 AM,68.0,66.2,94,30.12,10.0,ENE,8.1,-,N/A,,Overcast,60,2013-01-07 11:53:00
7:04 AM,68.0,66.2,94,30.12,10.0,ENE,5.8,-,N/A,,Mostly Cloudy,60,2013-01-07 12:04:00
7:18 AM,68.0,66.2,94,30.13,10.0,ENE,6.9,-,N/A,,Overcast,70,2013-01-07 12:18:00
7:53 AM,69.1,66.0,90,30.13,10.0,NE,10.4,-,N/A,,Overcast,50,2013-01-07 12:53:00
8:42 AM,69.8,66.2,88,30.16,6.0,ENE,6.9,-,0.00,Rain,Light Rain,60,2013-01-07 13:42:00
8:53 AM,69.1,66.0,90,30.15,6.0,ENE,5.8,-,0.01,Rain,Light Rain,70,2013-01-07 13:53:00
8:59 AM,69.8,66.2,88,30.16,2.5,ENE,5.8,-,0.01,Rain,Light Rain,70,2013-01-07 13:59:00
9:12 AM,68.0,66.2,94,30.17,1.2,East,6.9,-,0.07,Rain,Rain,80,2013-01-07 14:12:00
9:27 AM,68.0,66.2,94,30.17,3.0,NE,6.9,-,0.17,Rain,Light Rain,50,2013-01-07 14:27:00
9:50 AM,69.8,66.2,88,30.18,2.5,NE,8.1,-,0.17,Rain,Light Rain,50,2013-01-07 14:50:00
9:53 AM,68.0,66.9,96,30.17,3.0,NE,8.1,-,0.17,Rain,Light Rain,50,2013-01-07 14:53:00
10:53 AM,68.0,66.9,96,30.17,6.0,NE,12.7,-,0.00,,Overcast,50,2013-01-07 15:53:00
11:53 AM,69.1,66.9,93,30.14,9.0,ENE,11.5,-,N/A,,Overcast,60,2013-01-07 16:53:00
12:53 PM,70.0,66.0,87,30.11,10.0,ENE,10.4,-,N/A,,Overcast,70,2013-01-07 17:53:00
1:18 PM,69.8,66.2,88,30.10,10.0,ENE,10.4,-,N/A,,Overcast,60,2013-01-07 18:18:00
1:53 PM,71.6,66.2,83,30.11,10.0,NNE,9.2,-,N/A,,Overcast,30,2013-01-07 18:53:00
2:31 PM,73.4,66.2,78,30.10,10.0,NE,9.2,-,N/A,,Mostly Cloudy,50,2013-01-07 19:31:00
2:41 PM,73.4,66.2,78,30.10,10.0,NE,11.5,-,N/A,,Mostly Cloudy,50,2013-01-07 19:41:00
2:53 PM,73.0,66.0,79,30.09,10.0,ENE,11.5,-,N/A,,Mostly Cloudy,70,2013-01-07 19:53:00
3:53 PM,75.9,64.0,67,30.09,10.0,East,11.5,-,N/A,,Clear,80,2013-01-07 20:53:00
4:53 PM,75.0,64.0,69,30.10,10.0,NE,9.2,-,N/A,,Mostly Cloudy,50,2013-01-07 21:53:00
5:53 PM,73.4,64.4,73,30.12,10.0,NE,10.4,-,N/A,,Clear,50,2013-01-07 22:53:00
6:53 PM,70.0,64.0,81,30.13,10.0,NE,6.9,-,N/A,,Clear,50,2013-01-07 23:53:00
7:53 PM,69.1,64.0,84,30.14,10.0,NE,5.8,-,N/A,,Clear,40,2013-01-08 00:53:00
8:53 PM,68.0,64.0,87,30.14,10.0,NE,5.8,-,N/A,,Clear,40,2013-01-08 01:53:00
9:53 PM,66.9,63.0,87,30.14,10.0,NE,3.5,-,N/A,,Partly Cloudy,40,2013-01-08 02:53:00
10:53 PM,66.0,64.0,93,30.14,10.0,NE,4.6,-,N/A,,Mostly Cloudy,50,2013-01-08 03:53:00
11:36 PM,66.2,62.6,88,30.14,10.0,NE,5.8,-,N/A,,Mostly Cloudy,40,2013-01-08 04:36:00
11:53 PM,64.9,63.0,93,30.13,10.0,NE,6.9,-,N/A,,Mostly Cloudy,50,2013-01-08 04:53:00